Regional Weather Roundup
Issued by NWS

Home | Current Version | Previous Version | Graphics & Text | Print | Product List | Glossary On
Versions: 1 2 3 4 5 6 7 8 9 10 11 12 13 14 15 16 17 18 19 20 21 22 23 24 25 26 27
000
ASUS45 KTFX 260110
RWRMT
MONTANA REGIONAL WEATHER ROUNDUP
NATIONAL WEATHER SERVICE GREAT FALLS MT
700 PM MDT TUE JUL 25 2017

NOTE: "FAIR" INDICATES FEW OR NO CLOUDS BELOW 12000 FEET WITH NO
SIGNIFICANT WEATHER AND/OR OBSTRUCTIONS TO VISIBILITY.

MTZ001>007-043-260200-
WEST OF THE DIVIDE

CITY           SKY/WX    TMP DP  RH WIND       PRES   REMARKS
KALISPELL      SUNNY     87  35  15 VRB3      29.97S
MISSOULA       MOSUNNY   88  33  14 N15G22    29.96
BUTTE          CLOUDY    80  45  28 SW12      30.11F
MULLAN PASS    SUNNY     73  37  27 VRB3      30.19S
ANACONDA         N/A     82  45  26 SE8       30.06R
DEER LODGE       N/A     84  34  16 NW9       30.06S
EUREKA           N/A     88  34  14 MISG      29.96S
HAMILTON         N/A     84  46  26 N8        29.97S
LIBBY            N/A     88  34  14 N6        29.94S
$$

MTZ008-052>055-260200-
SOUTHWEST MONTANA

CITY           SKY/WX    TMP DP  RH WIND       PRES   REMARKS
BOZEMAN        SUNNY     80  47  31 S9        30.07F
DILLON         CLOUDY    77  50  38 N6        30.11R
W YELLOWSTONE  CLOUDY    63  54  72 SE8       30.28S
ENNIS          SUNNY     77  45  31 S10G18    30.18S
THREE FORKS      N/A     80  50  35 E7        30.04F
TWIN BRIDGES     N/A     78  44  29 E2        30.07F
$$

MTZ009-010-012-014-046-048-049-054-260200-
EAST SLOPES AND CENTRAL MONTANA

CITY           SKY/WX    TMP DP  RH WIND       PRES   REMARKS
CUT BANK       SUNNY     79  36  21 E12       30.07S
GREAT FALLS    SUNNY     82  35  18 NE14      30.03S
HELENA         SUNNY     86  45  23 E12       29.99S
CHOTEAU          N/A     81  34  18 E9G15     30.08R
$$

MTZ011-013-016-021-045-047-050-051-260200-
NORTH CENTRAL MONTANA

CITY           SKY/WX    TMP DP  RH WIND       PRES   REMARKS
HAVRE          SUNNY     85  38  18 VRB7      30.03S
LEWISTOWN      PTSUNNY   79  40  24 E13       30.08F
N BAR RANCH      N/A     73  39  29 S12       30.16S
CHINOOK          N/A     86  43  22 CALM      30.03S
$$

MTZ017>020-022>027-061-062-260200-
NORTHEAST MONTANA

CITY           SKY/WX    TMP DP  RH WIND       PRES   REMARKS
GLASGOW        MOSUNNY   81  42  25 W7        30.04S
JORDAN           N/A     83  39  21 CALM      30.05S
SIDNEY         PTSUNNY   86  44  23 NW9       30.01S
WOLF POINT     SUNNY     86  41  20 NW13      30.02S
MALTA          SUNNY     82  41  23 SE3       30.03S
PLENTYWOOD       N/A     81  43  26 NW8       30.04R
POPLAR           N/A     84  43  23 NW6       30.02S
$$

MTZ028>42-056>058-260200-
SOUTHCENTRAL AND SOUTHEAST MONTANA

CITY           SKY/WX    TMP DP  RH WIND       PRES   REMARKS
BAKER          CLOUDY    83  39  21 N3        30.08R
BILLINGS       LGT RAIN  74  43  32 SW5       30.12R
LIVINGSTON     MOSUNNY   71  43  36 E8        30.13F
MILES CITY     CLOUDY    83  39  21 CALM      30.05S
BIG TIMBER     SUNNY     70  45  40 NE6       30.16S
FORSYTH          N/A     81  43  26 NE3       30.04F
LAUREL           N/A     73  42  32 CALM      30.11S
$$

REGIONAL REPORTS...DAKOTAS

CITY           SKY/WX    TMP DP  RH WIND       PRES   REMARKS
WILLISTON      MOSUNNY   86  43  22 N10       30.01S
MINOT          SUNNY     82  51  34 NW12      29.98R
DICKINSON      CLOUDY    84  47  27 NW7       30.03S
BEACH            N/A     81  41  24 CALM      30.09S
CROSBY           N/A     79  50  36 NW9G17    30.02R
TIOGA            N/A     81  46  30 NW7G13    30.05R
WATFORD CITY     N/A     84  43  23 N8        30.01S
BISMARCK       CLOUDY    83  51  33 NW7       29.98S
GRAND FORKS    MOSUNNY   80  62  54 W7        29.88S
FARGO          PTCLDY    79  70  74 W5        29.90R
BUFFALO SD       N/A     79  50  36 E5        30.01S
RAPID CITY     CLOUDY    81  60  48 N16       30.03R
$$

REGIONAL REPORTS...WYOMING/IDAHO/WASHINGTON

CITY           SKY/WX    TMP DP  RH WIND       PRES   REMARKS
GILLETTE       LGT RAIN  65  61  87 NW5       30.17R
SHERIDAN       LGT RAIN  64  60  87 S7        30.16F
BUFFALO WY     LGT RAIN  64  58  80 CALM      30.23S
CODY           CLOUDY    64  54  69 S6        30.23F
YELLOWSTONE LA   N/A     53  53 100 CALM      30.40S
IDAHO FALLS    CLOUDY    82  50  32 S7        30.10F
BOISE          MOSUNNY   94  48  20 NW12      29.92S HX  90
SPOKANE        MOSUNNY   89  31  12 W5        29.97F
$$

REGIONAL REPORTS...ALBERTA

CITY           SKY/WX    TMP DP  RH WIND       PRES   REMARKS
EDMONTON       SUNNY     75  54  46 NW3       30.03S
CALGARY        MOSUNNY   73  43  33 E9        30.09S
LETHBRIDGE     MOSUNNY   77  45  31 NE13      30.05S
MEDICINE HAT   MOSUNNY   81  43  26 W6        30.04R
WATERTON GATE    N/A     75  39  27 NE10        N/A
CARDSTON         N/A     77  41  27 NE9         N/A
$$

REGIONAL REPORTS...SASKATCHEWAN

CITY           SKY/WX    TMP DP  RH WIND       PRES   REMARKS
SWIFT CURRENT  SUNNY     75  43  31 NW7       30.06S
REGINA         MOSUNNY   77  52  41 NW14G20   30.01R
SASKATOON      MOSUNNY   73  54  49 NW13G18   30.03R
CYPRESS HILLS    N/A     70  37  30 N5          N/A
VAL MARIE        N/A     79  39  24 N8          N/A
ROCKGLEN         N/A     73  41  31 N9          N/A
ASSINIBOIA       N/A     75  48  38 NW5         N/A
$$




USA.gov is the U.S. government's official web portal to all federal, state and local government web resources and services.